Home   Weather   Helena   Past weeks

Flag for USA Past Weather in Helena, Montana, USA — Yesterday and Last 2 Weeks

Now
62 °F

Clear.


Feels Like: 62 °F
Forecast: 52 / 81 °F
Wind: 8 mph from West

Location: Helena Regional Airport

Current Time: May 30, 2017 at 1:18:55 am

Latest Report: May 29, 2017 at 11:53 pm


Visibility: 10 mi

Pressure: 30.06 "Hg (25.98 "Hg at 1239m altitude)

Humidity: 44%

Dew Point: 40 °F

Location of HelenaLocation

Past Weather in Helena — Graph

°F

Helena Temperature Yesterday

Maximum temperature yesterday: 80 °F (at 4:53 pm)
Minimum temperature yesterday: 48 °F (at 5:53 am)
Average temperature yesterday: 64 °F

High & Low Weather Summary for the Past Weeks

 TemperatureHumidityPressure
High81 °F (May 23, 4:53 pm)100% (May 21, 1:53 am)30.34 "Hg (May 21, 1:53 am)
Low35 °F (May 16, 4:53 am)14% (May 24, 12:53 pm)29.41 "Hg (May 24, 7:53 am)
Average55 °F58%29.99 "Hg
* Reported May 14 11:53 pm — May 29 11:53 pm, Helena. Weather by CustomWeather, © 2017

Note: Actual official high and low records may vary slightly from our data, if they occured in-between our weather recording intervals... More about our weather records

Advertising

Helena Weather History for the Previous 24 Hours

Scroll right to see more
 ConditionsComfort  
Time TempWeatherWind HumidityBarometerVisibility
11:53 pm
Mon, May 29
62 °FClear.8 mph44%30.06 "Hg10 mi
10:53 pm64 °FClear.7 mph43%30.08 "Hg10 mi
9:53 pm66 °FClear.5 mph42%30.07 "Hg10 mi
8:53 pm70 °FSunny.6 mph35%30.04 "Hg10 mi
7:53 pm76 °FScattered clouds.7 mph27%30.05 "Hg10 mi
6:53 pm80 °FSunny.7 mph20%30.04 "Hg10 mi
5:53 pm80 °FScattered clouds.6 mph20%30.06 "Hg10 mi
4:53 pm80 °FSunny.5 mph18%30.07 "Hg10 mi
3:53 pm78 °FSunny.No wind19%30.09 "Hg10 mi
2:53 pm79 °FSunny.10 mph21%30.11 "Hg10 mi
1:53 pm77 °FSunny.5 mph26%30.12 "Hg10 mi
12:53 pm74 °FSunny.5 mph32%30.15 "Hg10 mi
11:53 am71 °FSunny.5 mph44%30.17 "Hg10 mi
10:53 am66 °FSunny.6 mph50%30.19 "Hg10 mi
9:53 am61 °FSunny.5 mph56%30.23 "Hg10 mi
8:53 am57 °FSunny.5 mph67%30.25 "Hg10 mi
7:53 am51 °FSunny.No wind80%30.27 "Hg10 mi
6:53 am48 °FSunny.No wind86%30.26 "Hg10 mi
5:53 am48 °FSunny.No wind83%30.26 "Hg10 mi
4:53 am50 °FClear.No wind77%30.26 "Hg10 mi
3:53 am50 °FPassing clouds.No wind77%30.24 "Hg10 mi
2:53 am50 °FClear.6 mph77%30.23 "Hg10 mi
1:53 am52 °FClear.No wind75%30.22 "Hg10 mi
Weather by CustomWeather, © 2017

See weather overviewHow to use our weather pages